Pittsburg, KS

10:08 AM CST on November 12, 2019 (GMT -0600)
Atkinson Municipal

Weather History for KPTS - October, 2019

Change the Weather History Date:

Tuesday, October 15, 2019

  Actual Average (WUND) Record (WUND)
Temperature  
Mean Temperature 58 °F -  
Max Temperature 67 °F - - (-1)
Min Temperature 49 °F - - (-1)
Degree Days  
Heating Degree Days 7    
Growing Degree Days 8 (Base 50)    
Moisture  
Dew Point 55 °F    
Average Humidity 81    
Maximum Humidity 99    
Minimum Humidity 54    
Precipitation  
Precipitation 0.04 in - - ()
Sea Level Pressure  
Sea Level Pressure 29.95 in    
Wind  
Wind Speed 7 mph (West)    
Max Wind Speed 12 mph    
Max Gust Speed 20 mph    
Visibility 8 miles    
Events Rain , Thunderstorm    
Averages and records for this station are not official NWS values.
T = Trace of Precipitation, MM = Missing Value Source: NWS Daily Summary

Daily Weather History Graph

Daily Weather History Graph

Search for Another Location

Airport or City:

Astronomy

Oct. 15, 2019 Rise Set
Actual Time 7:26 AM CDT 6:42 PM CDT
Civil Twilight 7:00 AM CDT 7:08 PM CDT
Nautical Twilight 6:30 AM CDT 7:38 PM CDT
Astronomical Twilight 5:59 AM CDT 8:08 PM CDT
Moon 8:04 PM CDT (10/15) 8:57 AM CDT (10/15)
Length of Visible Light 12h 07m
Length of Day
11h 15m
Full, 97% of the Moon is Illuminated
Oct 15
Full
Oct 21
Last Quarter
Oct 27
New
Nov 4
First Quarter
Nov 12
Full

Hourly Weather History & Observations

Time (CDT) Temp. Dew Point Humidity Pressure Visibility Wind Dir Wind Speed Gust Speed Precip Events Conditions
12:15 AM 63.9 °F 56.7 °F 77% 29.91 in 10.0 mi South 11.5 mph 16.1 mph N/A   Overcast
12:35 AM 63.7 °F 56.8 °F 78% 29.90 in 10.0 mi SSW 11.5 mph 17.3 mph N/A   Overcast
12:55 AM 63.5 °F 57.0 °F 79% 29.90 in 10.0 mi South 9.2 mph - N/A   Overcast
1:15 AM 63.3 °F 57.2 °F 80% 29.90 in 10.0 mi South 10.4 mph 16.1 mph N/A   Overcast
1:35 AM 63.1 °F 57.4 °F 81% 29.90 in 10.0 mi SSW 8.1 mph - N/A   Overcast
1:55 AM 62.8 °F 57.6 °F 83% 29.90 in 10.0 mi SSW 8.1 mph - N/A   Overcast
2:15 AM 62.8 °F 57.7 °F 84% 29.91 in 10.0 mi SSW 5.8 mph - N/A   Overcast
2:35 AM 62.8 °F 58.1 °F 85% 29.90 in 10.0 mi South 6.9 mph - N/A   Overcast
2:55 AM 62.6 °F 58.1 °F 85% 29.90 in 10.0 mi South 8.1 mph - N/A   Overcast
3:15 AM 62.4 °F 58.3 °F 86% 29.90 in 10.0 mi South 6.9 mph - N/A   Overcast
3:55 AM 62.2 °F 58.6 °F 88% 29.89 in 10.0 mi South 8.1 mph - N/A   Overcast
4:15 AM 61.9 °F 59.2 °F 91% 29.89 in 10.0 mi South 5.8 mph - N/A   Overcast
4:35 AM 61.7 °F 59.5 °F 93% 29.88 in 10.0 mi South 6.9 mph - N/A   Overcast
4:55 AM 61.7 °F 59.7 °F 93% 29.88 in 10.0 mi South 6.9 mph - N/A   Overcast
5:15 AM 61.7 °F 60.3 °F 95% 29.88 in 10.0 mi South 8.1 mph - N/A   Overcast
5:35 AM 61.9 °F 60.8 °F 96% 29.88 in 10.0 mi SSW 8.1 mph - N/A   Overcast
5:55 AM 62.1 °F 61.3 °F 97% 29.89 in 10.0 mi SSW 6.9 mph - N/A   Overcast
6:15 AM 62.6 °F 61.9 °F 97% 29.89 in 10.0 mi SSW 5.8 mph - N/A   Overcast
6:35 AM 62.8 °F 62.1 °F 97% 29.89 in 7.0 mi South 5.8 mph - N/A   Overcast
6:55 AM 62.8 °F 62.2 °F 98% 29.89 in 7.0 mi South 4.6 mph - N/A   Overcast
7:55 AM 63.3 °F 62.8 °F 98% 29.88 in 7.0 mi SSW 4.6 mph - N/A   Overcast
8:15 AM 63.5 °F 63.1 °F 99% 29.88 in 5.0 mi South 6.9 mph - N/A   Overcast
8:35 AM 64.0 °F 63.7 °F 99% 29.88 in 5.0 mi SSW 8.1 mph - N/A   Overcast
8:55 AM 64.6 °F 64.2 °F 99% 29.89 in 7.0 mi South 4.6 mph - N/A   Overcast
9:15 AM 65.5 °F 64.6 °F 97% 29.90 in 7.0 mi SW 4.6 mph - N/A   Overcast
9:35 AM 66.2 °F 64.9 °F 96% 29.90 in 10.0 mi West 4.6 mph - N/A   Overcast
9:55 AM 66.7 °F 65.3 °F 95% 29.92 in 10.0 mi West 4.6 mph - N/A   Overcast
10:15 AM 67.1 °F 65.5 °F 95% 29.91 in 10.0 mi West 3.5 mph - N/A   Overcast
10:35 AM 67.3 °F 65.7 °F 95% 29.91 in 10.0 mi WSW 3.5 mph - N/A   Overcast
10:55 AM 67.5 °F 65.8 °F 95% 29.91 in 7.0 mi WSW 3.5 mph - N/A   Overcast
11:15 AM 67.5 °F 66.6 °F 97% 29.90 in 2.0 mi SW 3.5 mph - N/A   Drizzle
11:35 AM 67.3 °F 66.7 °F 98% 29.90 in 2.0 mi SW 3.5 mph - N/A   Overcast
11:55 AM 67.6 °F 67.1 °F 98% 29.90 in 1.8 mi Calm Calm - N/A   Drizzle
12:15 PM 67.1 °F 66.7 °F 99% 29.90 in 2.5 mi North 5.8 mph - 0.02 in Rain Heavy Rain
12:55 PM 66.4 °F 66.2 °F 99% 29.90 in 3.0 mi NNW 3.5 mph - 0.03 in   Light Drizzle
1:15 PM 66.7 °F 66.2 °F 98% 29.90 in 3.0 mi North 5.8 mph - N/A Rain Rain
1:35 PM 65.3 °F 64.4 °F 97% 29.91 in 3.0 mi North 6.9 mph 17.3 mph 0.01 in   Drizzle
1:55 PM 62.4 °F 61.7 °F 97% 29.91 in 3.0 mi North 6.9 mph - 0.01 in   Light Drizzle
2:15 PM 62.1 °F 61.3 °F 97% 29.92 in 7.0 mi North 6.9 mph - N/A   Overcast
2:35 PM 62.2 °F 60.6 °F 94% 29.92 in 10.0 mi North 4.6 mph - N/A   Overcast
3:15 PM 61.3 °F 52.5 °F 73% 29.93 in 10.0 mi North 9.2 mph - N/A   Overcast
3:35 PM 60.1 °F 48.7 °F 66% 29.94 in 10.0 mi North 9.2 mph 18.4 mph N/A   Overcast
3:55 PM 59.2 °F 47.3 °F 65% 29.95 in 10.0 mi North 8.1 mph 19.6 mph N/A   Overcast
4:35 PM 62.2 °F 46.0 °F 55% 29.97 in 10.0 mi NNE 10.4 mph 17.3 mph N/A   Scattered Clouds
4:55 PM 63.0 °F 45.9 °F 54% 29.97 in 10.0 mi North 9.2 mph 18.4 mph N/A   Clear
5:15 PM 63.0 °F 46.0 °F 54% 29.98 in 10.0 mi North 6.9 mph - N/A   Clear
5:35 PM 63.3 °F 46.6 °F 54% 29.98 in 7.0 mi North 6.9 mph - N/A   Clear
5:55 PM 63.1 °F 46.6 °F 55% 29.98 in 10.0 mi North 5.8 mph - N/A Thunderstorm Clear
6:35 PM 61.3 °F 44.8 °F 55% 29.99 in 10.0 mi North 5.8 mph - N/A   Clear
6:55 PM 59.9 °F 43.0 °F 54% 30.00 in 10.0 mi NNW 3.5 mph - N/A   Clear
7:15 PM 57.7 °F 43.5 °F 59% 30.00 in 10.0 mi NNW 3.5 mph - N/A   Clear
7:35 PM 56.5 °F 43.5 °F 62% 30.02 in 10.0 mi NNW 3.5 mph - N/A   Clear
7:55 PM 56.1 °F 43.0 °F 61% 30.03 in 10.0 mi North 5.8 mph - N/A   Clear
8:15 PM 55.9 °F 41.7 °F 59% 30.04 in 10.0 mi North 5.8 mph - N/A   Clear
8:35 PM 55.8 °F 40.6 °F 57% 30.05 in 10.0 mi North 4.6 mph - N/A   Clear
8:55 PM 54.9 °F 39.7 °F 57% 30.06 in 10.0 mi North 4.6 mph - N/A   Clear
9:15 PM 54.5 °F 39.2 °F 56% 30.07 in 10.0 mi North 6.9 mph - N/A   Clear
9:35 PM 54.3 °F 38.1 °F 54% 30.08 in 10.0 mi North 5.8 mph - N/A   Clear
9:55 PM 53.2 °F 37.8 °F 56% 30.08 in 10.0 mi North 3.5 mph - N/A   Clear
10:55 PM 50.2 °F 38.7 °F 65% 30.12 in 10.0 mi NNW 4.6 mph - N/A   Clear
11:15 PM 49.5 °F 39.0 °F 67% 30.13 in 10.0 mi North 3.5 mph - N/A   Clear
11:35 PM 49.1 °F 38.7 °F 67% 30.14 in 10.0 mi North 6.9 mph - N/A   Clear
11:55 PM 49.6 °F 37.8 °F 64% 30.14 in 10.0 mi North 8.1 mph - N/A   Clear